Regional Weather Roundup
Issued by NWS

Home | Current Version | Previous Version | Text Only | Print | Product List | Glossary Off
Versions: 1 2 3 4 5 6 7 8 9 10 11 12 13 14 15 16 17 18 19 20 21 22 23 24 25 26 27 28 29 30 31 32 33 34 35 36 37 38 39 40 41 42 43 44 45 46 47 48 49 50

000
ASUS43 KOAX 040710
RWRNE

WEATHER ROUNDUP FOR NEBRASKA
NATIONAL WEATHER SERVICE OMAHA NE
200 AM CDT WED MAY 04 2016

NOTES: SATELLITE DATA IS BEING USED TO AUGMENT CLOUD COVER ABOVE
       12000 FEET.
       "FAIR" INDICATES FEW OR NO CLOUDS BELOW 12,000 FEET WITH NO
       SIGNIFICANT WEATHER AND/OR OBSTRUCTIONS TO VISIBILITY.

  * THESE STATIONS DO NOT REPORT WEATHER SUCH AS RAIN...SNOW OR FOG.

NEZ001>004-019>022-054>056-040800-
NEBRASKA PANHANDLE

CITY           SKY/WX    TMP DP  RH WIND       PRES   REMARKS
SCOTTSBLUFF    CLEAR     44  39  82 N6        30.18S
ALLIANCE       CLEAR     37  36  96 W9        30.16R WCI  30
CHADRON        CLEAR     43  40  89 SW7       30.15R
KIMBALL        CLEAR     40  37  90 W6        30.22R
SIDNEY         CLEAR     41  35  79 NW7       30.19S
$$

NEZ057>060-069>072-079>082-040800-
SOUTHWEST NEBRASKA

CITY           SKY/WX    TMP DP  RH WIND       PRES   REMARKS
NORTH PLATTE   CLEAR     41  38  89 NW8       30.08R
IMPERIAL       CLEAR     47  37  68 W8        30.13R
LEXINGTON      CLEAR     46  41  83 NW8       30.04S
MCCOOK         CLEAR     44  39  82 W8        30.08R
OGALLALA       CLEAR     41  38  86 W7        30.13S
$$

NEZ005>010-023>029-035>040-094-040800-
NORTH CENTRAL NEBRASKA

CITY           SKY/WX    TMP DP  RH WIND       PRES   REMARKS
VALENTINE      CLEAR     47  40  76 NW6       30.07R
AINSWORTH      CLEAR     47  41  78 NW3       30.06R
BROKEN BOW     CLEAR     52  41  66 N8        30.03R
O`NEILL        CLEAR     49  39  70 NW8       30.02R
ORD            CLEAR     47  42  83 NW8       30.01R
THEDFORD       CLEAR     49  41  76 W8        30.08R
$$

NEZ041-046>049-061>064-073>077-083>087-040800-
SOUTH CENTRAL NEBRASKA

CITY           SKY/WX    TMP DP  RH WIND       PRES   REMARKS
GRAND ISLAND   CLEAR     50  42  74 NW8       30.00R
AURORA         CLEAR     52  44  74 NW12      29.98R
HASTINGS       CLEAR     53  42  66 NW12      29.98R
HEBRON         CLEAR     53  45  74 CALM      29.95S
HOLDREGE       CLEAR     51  40  65 W6        30.01F
KEARNEY *      CLEAR     52  39  62 NW9       30.00S
YORK           CLEAR     54  45  71 NW14      29.96R
$$

NEZ011>018-030>034-042>045-040800-
NORTHEAST NEBRASKA

CITY           SKY/WX    TMP DP  RH WIND       PRES   REMARKS
NORFOLK        PTCLDY    51  38  60 NW8       29.96R
ALBION         CLEAR     44  38  79 NW3       29.99R
BLAIR          CLEAR     58  40  52 N13       29.90R
COLUMBUS *     CLEAR     54  37  54 NW8       29.96R
FREMONT        CLEAR     54  41  61 NW7       29.92R
TEKAMAH        CLEAR     53  40  61 N14       29.90R
WAYNE          CLEAR     48  38  69 NW7       29.96R
$$

NEZ050>053-065>068-078-088>093-040800-
SOUTHEAST NEBRASKA

CITY           SKY/WX    TMP DP  RH WIND       PRES   REMARKS
LINCOLN        CLEAR     59  44  57 NW8       29.93R
OMAHA EPPLEY   CLEAR     57  43  59 N10       29.89R
BEATRICE       CLEAR     53  45  73 W10       29.91S
FALLS CITY     MOCLDY    58  44  60 W14       29.85F
NEBRASKA CITY  PTCLDY    57  43  59 NW12G20   29.88R
PLATTSMOUTH    PTCLDY    57  46  67 NW12      29.88R
$$

NEZ044-045-051>053-067-040800-
OMAHA AREA

CITY           SKY/WX    TMP DP  RH WIND       PRES   REMARKS
OMAHA EPPLEY   CLEAR     57  43  59 N10       29.89R
BLAIR          CLEAR     58  40  52 N13       29.90R
FREMONT        CLEAR     54  41  61 NW7       29.92R
MILLARD        CLEAR     60  42  52 NW3       29.90R
OFFUTT AFB     CLEAR     60  42  51 N12       29.88R
PLATTSMOUTH    PTCLDY    57  46  67 NW12      29.88R
WAHOO          FAIR      55  44  67 NW10      29.92R
$$



USA.gov is the U.S. government's official web portal to all federal, state and local government web resources and services.